Weather History for Daggett-Barstow, CA

Change the Weather History Date:

Saturday, July 20, 2013

  Actual Average Record
Temperature  
Mean Temperature 92 °F -  
Max Temperature 102 °F 102 °F 111 °F (2000)
Min Temperature 84 °F 74 °F 63 °F (1991)
Cooling Degree Days 27    
Growing Degree Days 42 (Base 50)    
Moisture  
Dew Point 53 °F    
Average Humidity 26    
Maximum Humidity 40    
Minimum Humidity 16    
Precipitation  
Precipitation 0.00 in - - ()
Sea Level Pressure  
Sea Level Pressure 29.71 in    
Wind  
Wind Speed 9 mph (NE)    
Max Wind Speed 22 mph    
Max Gust Speed 25 mph    
Visibility 10 miles    
Events      
Averages and records for this station are not official NWS values.
T = Trace of Precipitation, MM = Missing Value Source: NWS Daily Summary

Daily Weather History Graph

Daily Weather History Graph

Search for Another Location

Airport:

Trip Planner

Search our weather history database for the weather conditions in past years. The results will help you decide how hot, cold, wet, or windy it might be!

Date:

Astronomy

Jul. 20, 2013 Rise Set
Actual Time 5:48 AM PDT 7:58 PM PDT
Civil Twilight 5:19 AM PDT 8:26 PM PDT
Nautical Twilight 4:44 AM PDT 9:01 PM PDT
Astronomical Twilight 4:07 AM PDT 9:39 PM PDT
Moon 6:06 PM PDT (7/20) 3:32 AM PDT (7/20)
Length of Visible Light 15h 06m
Length of Day
14h 09m
Waxing Gibbous, 94% of the Moon is Illuminated
Jul 20
Waxing Gibbous
Jul 22
Full
Jul 29
Last Quarter
Aug 6
New
Aug 14
First Quarter

Hourly Weather History & Observations

Time (PDT) Temp. Heat Index Dew Point Humidity Pressure Visibility Wind Dir Wind Speed Gust Speed Precip Events Conditions
12:50 AM 88.0 °F - 37.9 °F 17% 29.77 in 10.0 mi West 5.8 mph - N/A   Clear
1:50 AM 87.1 °F - 37.9 °F 18% 29.75 in 10.0 mi West 6.9 mph - N/A   Clear
2:50 AM 86.0 °F - 37.9 °F 18% 29.68 in 10.0 mi WNW 16.1 mph - N/A   Clear
3:50 AM 86.0 °F - 37.0 °F 18% 29.68 in 10.0 mi West 10.4 mph - N/A   Clear
4:50 AM 84.9 °F - 37.0 °F 18% 29.68 in 10.0 mi West 9.2 mph - N/A   Clear
5:50 AM 86.0 °F - 36.0 °F 17% 29.73 in 10.0 mi SW 9.2 mph - N/A   Clear
6:50 AM 87.1 °F - 36.0 °F 16% 29.74 in 10.0 mi SSW 3.5 mph - N/A   Clear
7:50 AM 86.0 °F 85.4 °F 59.0 °F 40% 29.76 in 10.0 mi ENE 4.6 mph - N/A   Clear
8:50 AM 90.0 °F - 52.0 °F 27% 29.76 in 10.0 mi Calm Calm - N/A   Clear
9:50 AM 95.0 °F 97.0 °F 64.0 °F 36% 29.75 in 10.0 mi ENE 13.8 mph - N/A   Clear
10:50 AM 98.1 °F 99.6 °F 63.0 °F 31% 29.74 in 10.0 mi East 18.4 mph 24.2 mph N/A   Clear
11:50 AM 100.0 °F 100.7 °F 60.1 °F 27% 29.73 in 10.0 mi East 18.4 mph 25.3 mph N/A   Clear
12:50 PM 99.0 °F 98.6 °F 59.0 °F 26% 29.72 in 10.0 mi East 17.3 mph - N/A   Clear
1:50 PM 100.0 °F 99.2 °F 57.0 °F 24% 29.70 in 10.0 mi SE 15.0 mph 24.2 mph N/A   Clear
1:56 PM 98.6 °F 97.6 °F 57.2 °F 25% 29.80 in 10.0 mi SSE 21.9 mph 25.3 mph N/A   Clear
2:50 PM 99.0 °F 97.7 °F 55.9 °F 24% 29.70 in 10.0 mi SSE 11.5 mph - N/A   Partly Cloudy
3:43 PM 96.8 °F 98.0 °F 62.6 °F 32% 29.77 in 10.0 mi East 13.8 mph - N/A   Partly Cloudy
3:50 PM 97.0 °F 97.8 °F 62.1 °F 31% 29.68 in 10.0 mi East 15.0 mph - N/A   Partly Cloudy
4:50 PM 99.0 °F 98.1 °F 57.0 °F 25% 29.66 in 10.0 mi ENE 8.1 mph - N/A   Clear
5:50 PM 100.0 °F 98.3 °F 55.0 °F 22% 29.64 in 10.0 mi ENE 4.6 mph - N/A   Clear
6:50 PM 99.0 °F 97.7 °F 55.9 °F 24% 29.64 in 10.0 mi NE 4.6 mph - N/A   Clear
7:50 PM 96.1 °F 95.2 °F 57.9 °F 28% 29.65 in 10.0 mi NE 5.8 mph - N/A   Clear
8:50 PM 95.0 °F 93.7 °F 57.0 °F 28% 29.66 in 10.0 mi North 4.6 mph - N/A   Clear
9:50 PM 93.0 °F 91.7 °F 57.0 °F 30% 29.69 in 10.0 mi NW 5.8 mph 16.1 mph N/A   Clear
10:50 PM 91.0 °F 89.7 °F 57.0 °F 32% 29.70 in 10.0 mi NNW 6.9 mph - N/A   Clear
11:50 PM 89.1 °F 88.0 °F 57.9 °F 35% 29.72 in 10.0 mi NW 5.8 mph - 0.00 in   Clear